sat.trackr.live / text

‹ back to catalog

STARLINK-35305

NORAD 66561 · 2025-268E

PAYLOAD ACTIVE UNKNOWN

§ Identity

Operator
Country
US
Launch date
2025-11-21
Launch site
AFETR
Launch vehicle
Mass (kg)
RCS (m²)

Purposes: comms

External: N2YO · Heavens-Above · Gunter

§ Orbital elements

Epoch: 2026-05-24T18:08:05.891136Z

Period
94.27 min
Inclination
43.0035°
Eccentricity
0.0001999
Mean motion
15.27582451 rev/d
Perigee alt
481.7 km
Apogee alt
484.4 km
Semi-major
6,861.2 km
B*
5.7430e-4
RAAN
277.4367°
Arg perigee
272.2753°
Mean anomaly
87.7870°
Rev number
2,959

§ Raw data

STARLINK-353051 66561U 25268E   26144.75562374  .00015576  00000+0  57430-3 0  99982 66561  43.0035 277.4367 0001999 272.2753  87.7870 15.27582451 29595

JSON: /api/v1/satellites/66561 · /tle

For live sub-satellite position, see the globe view (requires WebGL).

§ Visibility from observer

Set your observer location to see the next 7 days of passes ≥ 10°. The values pass through the URL so the page stays shareable.

No JS? Fill the form by hand. The geolocation button needs JavaScript.